[[{"header":{"parameterUnit":"m.s-1","parameterCategory":2,"la1":30.2991,"la2":30.254,"lo1":-89.0895,"lo2":-89.0444,"dy":0.0017,"dx":0.0017,"nx":28,"ny":28,"refTime":"2024-10-21T09:00:00:Z","depth":"0","parameterNumber":2,"parameterNumberName":"U-component_of_CURRENTS"},"data":[0,0,0,0,0,0,0,0,0,0,0,0,0,0,0,0,0,0,0,0,0,0,0,0,0,0,0,0,0,0,0,0,0,0,0,0,0,0,0,0,0,0,0,0,0,0,0,0,0,0,0,0,0,0,0,0,0,0,-0.3566,-0.3567,0,-0.3586,-0.3586,-0.3586,-0.3479,-0.3477,-0.3474,-0.3472,-0.3322,-0.3321,-0.3319,0,0,0,0,0,0,0,0,0,0,0,0,0,-0.3346,-0.3351,-0.3566,-0.3567,-0.3568,-0.3586,-0.3586,-0.3585,-0.348,-0.3477,-0.3474,-0.3471,-0.3323,-0.3321,-0.3319,0,0,0,0,0,0,0,0,0,0,0,0,0,-0.3406,-0.3353,-0.3566,-0.3521,-0.3518,-0.3586,-0.3586,-0.3585,-0.348,-0.3477,-0.3473,-0.3469,-0.3324,-0.3321,-0.3319,-0.338,0,0,-0.3311,-0.331,0,0,0,0,0,0,0,0,-0.3403,-0.3414,-0.3527,-0.3525,-0.3521,-0.3531,-0.3454,-0.351,-0.3481,-0.3489,-0.3472,-0.3467,-0.3383,-0.3376,-0.3382,-0.3373,-0.3366,-0.3311,-0.331,-0.3309,-0.3308,0,0,0,0,0,0,0,-0.3399,-0.3412,-0.3568,-0.3528,-0.3525,-0.347,-0.3474,-0.3464,-0.3449,-0.3488,-0.3481,-0.3494,-0.3379,-0.3385,-0.3377,-0.3364,-0.3311,-0.3309,-0.3307,-0.3307,-0.3333,-0.3335,0,0,0,0,0,0,-0.3419,-0.341,-0.3568,-0.3569,-0.3458,-0.3478,-0.3482,-0.3527,-0.3453,-0.3441,-0.3497,-0.3489,-0.3391,-0.338,-0.3371,-0.3343,-0.3309,-0.3306,-0.3305,-0.3331,-0.3333,-0.3335,0,0,0,0,0,0,-0.3415,-0.3434,-0.3567,-0.3491,-0.3505,-0.3487,-0.3537,-0.353,-0.3525,-0.3463,-0.3446,-0.3499,-0.3387,-0.3375,-0.336,-0.3339,-0.3305,-0.3303,-0.3328,-0.3331,-0.3334,-0.3348,0,0,0,0,0,0,-0.3409,-0.3433,-0.3468,-0.3495,-0.351,-0.3612,-0.3541,-0.3533,-0.3542,-0.3531,-0.346,-0.3442,-0.3383,-0.3365,-0.3358,-0.3335,-0.3301,-0.3325,-0.3329,-0.3333,-0.3345,-0.3351,-0.3356,0,0,0,0,0,-0.3401,-0.3467,-0.347,-0.3488,-0.3561,-0.3615,-0.3618,-0.3585,-0.3546,-0.3562,-0.3509,-0.3444,-0.3384,-0.3366,-0.3357,-0.3333,-0.3323,-0.3328,-0.3333,-0.3342,-0.335,-0.3356,0,0,0,0,0,0,-0.3367,-0.3465,-0.3467,-0.3553,-0.3584,-0.3599,-0.3619,-0.3602,-0.3579,-0.3555,-0.348,-0.3462,-0.3445,-0.3414,-0.3394,-0.3361,-0.3341,-0.3345,-0.3351,-0.3358,-0.3364,-0.3334,-0.3299,0,0,0,0,0,-0.339,-0.3477,-0.3529,-0.3595,-0.3619,-0.3623,-0.3638,-0.3623,-0.3613,-0.3598,-0.355,-0.3502,-0.3468,-0.3431,-0.3415,-0.34,-0.3343,-0.3383,-0.3389,-0.3394,-0.337,-0.3265,-0.3256,-0.3351,-0.3351,-0.3351,0,0,-0.3393,-0.346,-0.3503,-0.3596,-0.3616,-0.3641,-0.3621,-0.3658,-0.3646,-0.3588,-0.3558,-0.3537,-0.3481,-0.3456,-0.3443,-0.3412,-0.3352,-0.34,-0.3403,-0.3376,-0.3269,-0.3258,-0.3249,-0.3355,-0.3354,-0.3354,0,0,-0.3432,-0.3506,-0.3576,-0.3612,-0.3666,-0.3671,-0.3686,-0.3709,-0.3686,-0.3683,-0.3628,-0.3597,-0.3558,-0.3497,-0.346,-0.3502,-0.3408,-0.3505,-0.3472,-0.3371,-0.336,-0.3349,-0.3311,-0.3296,-0.3479,-0.3479,-0.3479,0,-0.3415,-0.3507,-0.3596,-0.3647,-0.3652,-0.3683,-0.3695,-0.3705,-0.3708,-0.3663,-0.3671,-0.3576,-0.3563,-0.3464,-0.3493,-0.3504,-0.3451,-0.3436,-0.337,-0.3358,-0.3347,-0.331,-0.3293,-0.348,-0.348,-0.348,-0.348,0,-0.3499,-0.3539,-0.358,-0.3652,-0.3683,-0.3706,-0.3728,-0.3729,-0.3706,-0.3675,-0.3606,-0.359,-0.3503,-0.3519,-0.352,-0.3434,-0.3429,-0.3405,-0.3333,-0.3336,-0.33,-0.3283,-0.3482,-0.3482,-0.3481,-0.3481,0,0,-0.3504,-0.361,-0.3615,-0.3585,-0.3669,-0.367,-0.369,-0.3661,-0.3595,-0.3601,-0.35,-0.3492,-0.3459,-0.3423,-0.341,-0.3348,-0.3285,-0.335,-0.3344,-0.328,-0.3089,-0.3046,-0.3023,-0.3225,-0.3221,-0.3218,-0.311,0,-0.3503,-0.3543,-0.3627,-0.3597,-0.3578,-0.3615,-0.3603,-0.3583,-0.3561,-0.3491,-0.3446,-0.3374,-0.3424,-0.3377,-0.3326,-0.3304,-0.3232,-0.3318,-0.3122,-0.3117,-0.3048,-0.2998,-0.288,-0.2767,-0.3093,-0.309,-0.3088,0,-0.354,-0.3532,-0.352,-0.3468,-0.3469,-0.3471,-0.3396,-0.3394,-0.3345,-0.3322,-0.3252,-0.3235,-0.3178,-0.3219,-0.311,-0.3156,-0.3123,-0.3103,-0.3096,-0.3024,-0.3038,-0.2811,-0.2723,-0.2717,-0.306,-0.3063,-0.3065,0,-0.3419,-0.3441,-0.3397,-0.3394,-0.338,-0.3351,-0.3337,-0.331,-0.327,-0.3207,-0.3167,-0.3084,-0.3048,-0.2978,-0.3003,-0.3028,-0.2884,-0.2898,-0.2812,-0.2812,-0.2656,-0.2646,-0.2498,-0.2767,-0.2767,-0.2768,-0.2768,0,-0.3353,-0.3296,-0.3321,-0.3269,-0.3154,-0.3218,-0.3116,-0.3096,-0.3086,-0.3015,-0.3053,-0.2987,-0.2983,-0.2932,-0.2931,-0.2829,-0.2808,-0.2781,-0.2751,-0.267,-0.2663,-0.2607,-0.265,-0.2764,-0.2765,-0.2765,-0.2766,0,-0.3191,-0.3252,-0.3138,-0.3099,-0.3089,-0.2987,-0.2983,-0.2923,-0.2949,-0.2874,-0.2858,-0.2886,-0.2831,-0.283,-0.2745,-0.2726,-0.259,-0.2603,-0.2554,-0.2518,-0.2426,-0.2475,-0.2288,-0.2223,-0.2461,-0.2459,-0.2457,0,-0.3107,-0.3045,-0.2961,-0.291,-0.2885,-0.2802,-0.277,-0.2811,-0.2789,-0.28,-0.2755,-0.273,-0.2675,-0.2574,-0.2529,-0.245,-0.248,-0.2309,-0.2323,-0.237,-0.2403,-0.2449,-0.2412,-0.2153,-0.2149,-0.2145,-0.2142,0,-0.2846,-0.2837,-0.273,-0.2647,-0.2602,-0.2546,-0.2524,-0.2503,-0.2574,-0.2557,-0.2541,-0.2508,-0.245,-0.2335,-0.2274,-0.2219,-0.2252,-0.2235,-0.2245,-0.2104,-0.2173,-0.2114,-0.2347,-0.2112,-0.2115,-0.2117,-0.2119,-0.212,-0.2625,-0.2491,-0.2413,-0.2323,-0.2305,-0.229,-0.2209,-0.2268,-0.2232,-0.2214,-0.2298,-0.2231,-0.2201,-0.209,-0.2038,-0.1935,-0.2012,-0.189,-0.1939,-0.1978,-0.1915,-0.2122,-0.1879,-0.1881,-0.1882,-0.1884,-0.1885,0,-0.2297,-0.221,-0.2119,-0.2025,-0.1974,-0.205,-0.204,-0.1984,-0.1932,-0.1981,-0.1962,-0.1938,-0.183,-0.1825,-0.1751,-0.1675,-0.1641,-0.1653,-0.1676,-0.1645,-0.1761,-0.1748,-0.1509,-0.1509,-0.1509,-0.1509,-0.1509,-0.1509,-0.2119,-0.1911,-0.1887,-0.1724,-0.171,-0.1596,-0.1571,-0.1549,-0.1555,-0.1509,-0.1528,-0.1549,-0.1607,-0.1767,-0.1668,-0.1582,-0.1563,-0.1504,-0.1558,-0.1659,-0.1686,-0.1712,-0.1706,-0.1462,-0.1462,-0.1359,-0.1358,-0.1358]},{"header":{"parameterUnit":"m.s-1","parameterCategory":2,"la1":30.2991,"la2":30.254,"lo1":-89.0895,"lo2":-89.0444,"dy":0.0017,"dx":0.0017,"nx":28,"ny":28,"refTime":"2024-10-21T09:00:00:Z","depth":"0","parameterNumber":3,"parameterNumberName":"V-component_of_CURRENTS"},"data":[0,0,0,0,0,0,0,0,0,0,0,0,0,0,0,0,0,0,0,0,0,0,0,0,0,0,0,0,0,0,0,0,0,0,0,0,0,0,0,0,0,0,0,0,0,0,0,0,0,0,0,0,0,0,0,0,0,0,-0.0577,-0.0575,0,-0.0425,-0.0423,-0.0421,-0.0365,-0.0365,-0.0366,-0.0367,-0.0171,-0.0165,-0.016,0,0,0,0,0,0,0,0,0,0,0,0,0,-0.068,-0.0679,-0.0577,-0.0575,-0.0573,-0.0425,-0.0423,-0.0421,-0.0365,-0.0365,-0.0366,-0.0367,-0.0173,-0.0166,-0.0159,0,0,0,0,0,0,0,0,0,0,0,0,0,-0.0591,-0.0679,-0.0577,-0.0529,-0.0524,-0.0426,-0.0423,-0.042,-0.0364,-0.0366,-0.0367,-0.0368,-0.0175,-0.0167,-0.0158,-0.0083,0,0,-0.0131,-0.0128,0,0,0,0,0,0,0,0,-0.0596,-0.0587,-0.0538,-0.0532,-0.0526,-0.0417,-0.0388,-0.0306,-0.0364,-0.0422,-0.0367,-0.0368,-0.025,-0.0235,-0.0202,-0.0074,-0.0066,-0.0131,-0.0125,-0.0121,-0.0119,0,0,0,0,0,0,0,-0.0603,-0.0592,-0.0514,-0.0536,-0.0529,-0.0469,-0.0458,-0.0372,-0.033,-0.0417,-0.0414,-0.04,-0.0246,-0.021,-0.0197,-0.0063,-0.0131,-0.0123,-0.0118,-0.0114,0.0144,0.0145,0,0,0,0,0,0,-0.0632,-0.0599,-0.0519,-0.051,-0.0567,-0.0467,-0.0455,-0.0449,-0.0331,-0.0315,-0.0399,-0.0398,-0.0225,-0.0207,-0.0189,-0.0113,-0.0122,-0.0113,-0.0108,0.0142,0.0144,0.0146,0,0,0,0,0,0,-0.0635,-0.0627,-0.0525,-0.0552,-0.0536,-0.0465,-0.0458,-0.0446,-0.0418,-0.0319,-0.0302,-0.0387,-0.0225,-0.0202,-0.0106,-0.0104,-0.0109,-0.0101,0.014,0.0143,0.0145,0.0054,0,0,0,0,0,0,-0.0639,-0.0629,-0.0636,-0.0555,-0.0535,-0.0476,-0.0457,-0.0442,-0.0409,-0.0406,-0.0301,-0.0284,-0.0224,-0.0119,-0.0097,-0.0092,-0.0094,0.0138,0.0141,0.0144,0.0055,0.0053,0.0051,0,0,0,0,0,-0.0643,-0.0656,-0.0637,-0.0628,-0.0548,-0.0476,-0.046,-0.0411,-0.0408,-0.0391,-0.0314,-0.0288,-0.0086,-0.011,-0.0085,-0.0078,0.0137,0.0141,0.0144,0.0055,0.0053,0.0051,0,0,0,0,0,0,-0.0721,-0.0648,-0.0627,-0.0623,-0.0557,-0.0468,-0.0452,-0.0417,-0.0343,-0.0342,-0.0257,-0.0232,-0.015,-0.0089,-0.0119,0.0009,0.0027,0.0035,-0.0049,-0.0051,-0.0053,-0.0091,-0.0087,0,0,0,0,0,-0.0738,-0.0725,-0.0642,-0.0642,-0.0609,-0.0531,-0.0499,-0.046,-0.0385,-0.0355,-0.0277,-0.0191,-0.011,-0.0065,0.002,0.0098,0.0137,0.0119,0.0117,0.0115,0.0105,0.0164,0.0165,0.0158,0.0158,0.0157,0,0,-0.0776,-0.0731,-0.0729,-0.0656,-0.0602,-0.0554,-0.0514,-0.0468,-0.0432,-0.0342,-0.027,-0.0191,-0.0089,-0.0007,0.0034,0.004,0.0142,0.0119,0.0116,0.0107,0.0168,0.0168,0.0168,0.016,0.016,0.0159,0,0,-0.0821,-0.0794,-0.0783,-0.0724,-0.0643,-0.0586,-0.0578,-0.0479,-0.0442,-0.0355,-0.0288,-0.0209,-0.0076,-0.0008,0.0042,0.0087,0.013,0.0114,0.0073,0.013,0.013,0.0131,0.0184,0.019,0.0111,0.0111,0.0111,0,-0.0875,-0.0838,-0.077,-0.0729,-0.0694,-0.0607,-0.0579,-0.0517,-0.0402,-0.0367,-0.0346,-0.0161,-0.0081,0.001,0.0022,0.0077,0.0116,0.0063,0.0122,0.0124,0.0126,0.018,0.0188,0.0107,0.0107,0.0108,0.0108,0,-0.0887,-0.0856,-0.0844,-0.0765,-0.0718,-0.0681,-0.0586,-0.0533,-0.048,-0.0414,-0.0315,-0.02,-0.0098,-0.0059,-0.0004,0.0056,0.0081,0.0107,0.0111,0.012,0.0179,0.0188,0.0101,0.0102,0.0104,0.0105,0,0,-0.1032,-0.0882,-0.0884,-0.0837,-0.0735,-0.0694,-0.0638,-0.0554,-0.0518,-0.0414,-0.0364,-0.023,-0.0179,-0.0117,-0.0038,0.0013,0.0061,0.0055,0.006,0.0078,0.0185,0.024,0.0256,0.009,0.0091,0.0092,0.022,0,-0.1069,-0.0989,-0.0918,-0.0867,-0.0815,-0.0728,-0.0683,-0.06,-0.0521,-0.0443,-0.034,-0.0254,-0.0198,-0.0153,-0.0094,0.0033,0.0082,0.0024,0.0201,0.0206,0.023,0.0268,0.0323,0.0445,0.0229,0.0231,0.0232,0,-0.111,-0.1044,-0.0985,-0.0882,-0.086,-0.0829,-0.0746,-0.069,-0.0569,-0.0509,-0.042,-0.033,-0.0223,-0.0186,-0.0003,-0.0045,0.0055,0.0141,0.0149,0.0235,0.0279,0.0407,0.0471,0.0638,0.0247,0.0246,0.0244,0,-0.12,-0.1104,-0.1055,-0.1017,-0.0889,-0.0873,-0.0824,-0.0718,-0.0669,-0.0554,-0.0508,-0.0373,-0.0294,-0.0164,0.0019,0.0006,0.0216,0.0226,0.0368,0.0373,0.0474,0.0486,0.0694,0.0337,0.0336,0.0336,0.0336,0,-0.1246,-0.1211,-0.1093,-0.1055,-0.1031,-0.0939,-0.0907,-0.0832,-0.0739,-0.0678,-0.0555,-0.0476,-0.0287,-0.0137,0.0007,0.0227,0.0212,0.0368,0.0414,0.0447,0.0455,0.0648,0.0702,0.0341,0.034,0.0339,0.0338,0,-0.1305,-0.1229,-0.1167,-0.1067,-0.1052,-0.1033,-0.0961,-0.093,-0.0838,-0.0757,-0.0727,-0.0544,-0.0341,-0.0141,0.0098,0.0226,0.0535,0.0496,0.0521,0.0567,0.0837,0.0882,0.1119,0.1225,0.0666,0.0668,0.067,0,-0.1312,-0.1274,-0.1187,-0.1177,-0.1132,-0.1099,-0.1081,-0.099,-0.0947,-0.0785,-0.0748,-0.0546,-0.0367,0.0005,0.0265,0.0538,0.0654,0.0735,0.072,0.0873,0.0958,0.0982,0.1054,0.0825,0.0828,0.083,0.0832,0,-0.1309,-0.1276,-0.1215,-0.1207,-0.1198,-0.1176,-0.1137,-0.1119,-0.1004,-0.0906,-0.0738,-0.0588,-0.0222,0.0131,0.0478,0.0641,0.0869,0.0792,0.0958,0.1107,0.1142,0.1258,0.0711,0.0854,0.0851,0.085,0.0849,0.0848,-0.1311,-0.1279,-0.1217,-0.1217,-0.1224,-0.1229,-0.1201,-0.1139,-0.105,-0.0844,-0.0731,-0.0417,0.003,0.0541,0.0721,0.1125,0.1064,0.1245,0.1289,0.1301,0.1403,0.0896,0.1081,0.1081,0.108,0.1079,0.1079,0,-0.1283,-0.1233,-0.1236,-0.1224,-0.125,-0.1247,-0.1213,-0.1142,-0.1015,-0.0772,-0.0562,0.0005,0.0465,0.0878,0.1398,0.1613,0.1653,0.1719,0.1777,0.183,0.1406,0.1413,0.167,0.167,0.167,0.1669,0.1669,0.1669,-0.1256,-0.1195,-0.1197,-0.1232,-0.1251,-0.1234,-0.1206,-0.1073,-0.0879,-0.0435,-0.0054,0.0222,0.0764,0.1541,0.2024,0.2069,0.2254,0.2232,0.2324,0.2037,0.1996,0.1957,0.198,0.2352,0.2352,0.275,0.2754,0.2757]}],[{"header":{"parameterUnit":"m.s-1","parameterCategory":2,"la1":30.2991,"la2":30.254,"lo1":-89.0895,"lo2":-89.0444,"dy":0.0017,"dx":0.0017,"nx":28,"ny":28,"refTime":"2024-10-21T09:00:00:Z","depth":"2","parameterNumber":2,"parameterNumberName":"U-component_of_CURRENTS"},"data":[0,0,0,0,0,0,0,0,0,0,0,0,0,0,0,0,0,0,0,0,0,0,0,0,0,0,0,0,0,0,0,0,0,0,0,0,0,0,0,0,0,0,0,0,0,0,0,0,0,0,0,0,0,0,0,0,0,0,-0.2543,-0.2544,0,-0.2557,-0.2556,-0.2555,-0.2532,-0.2533,-0.2533,-0.2533,-0.2648,-0.2651,-0.2654,0,0,0,0,0,0,0,0,0,0,0,0,0,-0.2483,-0.2484,-0.2543,-0.2544,-0.2545,-0.2557,-0.2556,-0.2555,-0.2532,-0.2533,-0.2533,-0.2533,-0.2647,-0.2651,-0.2654,0,0,0,0,0,0,0,0,0,0,0,0,0,-0.2493,-0.2484,-0.2543,-0.2544,-0.2545,-0.2557,-0.2556,-0.2555,-0.2532,-0.2533,-0.2533,-0.2534,-0.2646,-0.265,-0.2654,-0.2672,0,0,-0.2667,-0.2669,0,0,0,0,0,0,0,0,-0.2493,-0.2494,-0.2543,-0.2544,-0.2546,-0.2554,-0.2578,-0.2603,-0.2532,-0.2525,-0.2533,-0.2534,-0.2633,-0.2638,-0.2622,-0.2677,-0.2682,-0.2668,-0.267,-0.2672,-0.2673,0,0,0,0,0,0,0,-0.2492,-0.2493,-0.2537,-0.2544,-0.2546,-0.254,-0.2541,-0.2581,-0.2569,-0.2526,-0.2527,-0.2547,-0.2633,-0.2618,-0.2625,-0.2684,-0.2667,-0.2671,-0.2674,-0.2675,-0.2774,-0.2774,0,0,0,0,0,0,-0.2514,-0.2493,-0.2536,-0.2538,-0.2533,-0.2542,-0.2542,-0.2541,-0.2567,-0.2574,-0.2547,-0.2546,-0.261,-0.262,-0.2629,-0.2709,-0.2672,-0.2676,-0.2678,-0.2774,-0.2774,-0.2774,0,0,0,0,0,0,-0.2512,-0.2517,-0.2536,-0.2526,-0.253,-0.2544,-0.2542,-0.2541,-0.2558,-0.2584,-0.259,-0.2569,-0.2611,-0.2624,-0.2675,-0.2712,-0.2678,-0.2681,-0.2774,-0.2774,-0.2774,-0.2833,0,0,0,0,0,0,-0.251,-0.2515,-0.2507,-0.2527,-0.2532,-0.2561,-0.2543,-0.2542,-0.2573,-0.2573,-0.2605,-0.2614,-0.2612,-0.2669,-0.2679,-0.2717,-0.2685,-0.2774,-0.2774,-0.2774,-0.2831,-0.2835,-0.2839,0,0,0,0,0,-0.2507,-0.2507,-0.2505,-0.2511,-0.2524,-0.2563,-0.2563,-0.2567,-0.2575,-0.2582,-0.2599,-0.2614,-0.2677,-0.2673,-0.2685,-0.2725,-0.2774,-0.2774,-0.2774,-0.2829,-0.2834,-0.2839,0,0,0,0,0,0,-0.2466,-0.2507,-0.2505,-0.2512,-0.2544,-0.2564,-0.2567,-0.2589,-0.2604,-0.2598,-0.2628,-0.2637,-0.2701,-0.2695,-0.269,-0.2746,-0.2724,-0.2727,-0.2762,-0.2767,-0.2771,-0.2743,-0.2688,0,0,0,0,0,-0.2458,-0.2479,-0.251,-0.2523,-0.2531,-0.2555,-0.257,-0.2577,-0.2605,-0.261,-0.2649,-0.267,-0.2704,-0.2723,-0.2749,-0.2787,-0.2749,-0.2812,-0.2816,-0.282,-0.2802,-0.2757,-0.2755,-0.2775,-0.2775,-0.2775,0,0,-0.2452,-0.2478,-0.2489,-0.2519,-0.253,-0.2556,-0.2562,-0.2587,-0.2625,-0.2625,-0.2683,-0.2705,-0.272,-0.2758,-0.2783,-0.2762,-0.2799,-0.282,-0.2823,-0.2803,-0.2757,-0.2754,-0.2753,-0.2775,-0.2775,-0.2775,0,0,-0.2461,-0.2464,-0.248,-0.2514,-0.2549,-0.256,-0.2584,-0.262,-0.2642,-0.2701,-0.2708,-0.2737,-0.2806,-0.2802,-0.2815,-0.2854,-0.2834,-0.2875,-0.2867,-0.2825,-0.2823,-0.282,-0.2791,-0.2785,-0.2862,-0.2862,-0.2862,0,-0.2454,-0.2468,-0.2493,-0.2524,-0.2549,-0.2576,-0.2597,-0.2631,-0.269,-0.2705,-0.2728,-0.2783,-0.2819,-0.2836,-0.285,-0.2867,-0.2835,-0.2858,-0.283,-0.2827,-0.2823,-0.2793,-0.2786,-0.2865,-0.2865,-0.2864,-0.2864,0,-0.2472,-0.2491,-0.2508,-0.255,-0.2579,-0.2605,-0.2656,-0.2692,-0.2732,-0.2757,-0.2804,-0.2826,-0.2842,-0.2873,-0.2886,-0.288,-0.2866,-0.2856,-0.282,-0.2825,-0.2793,-0.2785,-0.2869,-0.2868,-0.2867,-0.2867,0,0,-0.2425,-0.2505,-0.2512,-0.2531,-0.259,-0.2615,-0.2676,-0.2714,-0.274,-0.2795,-0.2818,-0.2878,-0.2866,-0.2874,-0.2885,-0.2857,-0.2837,-0.2847,-0.2843,-0.2821,-0.2745,-0.2681,-0.2666,-0.2819,-0.2817,-0.2816,-0.2741,0,-0.2422,-0.2488,-0.2525,-0.2574,-0.2589,-0.2641,-0.2696,-0.274,-0.2777,-0.2811,-0.2823,-0.285,-0.2875,-0.2875,-0.2855,-0.285,-0.2813,-0.2858,-0.274,-0.2736,-0.2681,-0.2653,-0.2464,-0.2375,-0.2733,-0.2731,-0.273,0,-0.2397,-0.2445,-0.2498,-0.2567,-0.2577,-0.2618,-0.2668,-0.2722,-0.2768,-0.2794,-0.2797,-0.2812,-0.2809,-0.2818,-0.2771,-0.2798,-0.2769,-0.2753,-0.2749,-0.2654,-0.2654,-0.2423,-0.2346,-0.2716,-0.2717,-0.2718,-0.2719,0,-0.232,-0.2412,-0.2454,-0.2486,-0.2574,-0.2603,-0.2646,-0.2701,-0.2729,-0.2762,-0.2764,-0.2763,-0.2758,-0.2721,-0.2718,-0.2735,-0.265,-0.2664,-0.257,-0.2566,-0.236,-0.234,-0.2593,-0.2593,-0.2593,-0.2593,-0.2593,0,-0.228,-0.2312,-0.2429,-0.2447,-0.2481,-0.2559,-0.2581,-0.2632,-0.2677,-0.2676,-0.2732,-0.2713,-0.273,-0.2702,-0.2687,-0.2601,-0.2617,-0.2548,-0.2528,-0.2379,-0.2362,-0.2618,-0.2622,-0.259,-0.2591,-0.2592,-0.2592,0,-0.2188,-0.2274,-0.2313,-0.2413,-0.2438,-0.2463,-0.2537,-0.2548,-0.2612,-0.2609,-0.2615,-0.2662,-0.2624,-0.263,-0.2576,-0.2546,-0.2482,-0.2443,-0.228,-0.2242,-0.2437,-0.2445,-0.2318,-0.2315,-0.2312,-0.231,-0.2308,0,-0.2156,-0.2162,-0.2263,-0.2277,-0.2322,-0.2373,-0.239,-0.2487,-0.2497,-0.2558,-0.2538,-0.254,-0.2491,-0.2416,-0.2362,-0.2289,-0.2386,-0.2087,-0.208,-0.2407,-0.2402,-0.2414,-0.2426,-0.1841,-0.1836,-0.1831,-0.1827,0,-0.2052,-0.2093,-0.2132,-0.2157,-0.2186,-0.2221,-0.2264,-0.227,-0.2365,-0.2371,-0.2364,-0.2336,-0.2282,-0.2124,-0.2063,-0.2004,-0.209,-0.1992,-0.233,-0.1955,-0.1955,-0.1952,-0.1978,-0.1787,-0.1791,-0.1794,-0.1796,-0.1798,-0.1961,-0.1962,-0.1997,-0.2012,-0.2042,-0.2044,-0.2015,-0.2071,-0.2069,-0.2047,-0.2131,-0.2028,-0.202,-0.1813,-0.1728,-0.1675,-0.1821,-0.1749,-0.1763,-0.1783,-0.1755,-0.1752,-0.1541,-0.1544,-0.1546,-0.1548,-0.1549,0,-0.1819,-0.1828,-0.1836,-0.1846,-0.1815,-0.1885,-0.1894,-0.1833,-0.1777,-0.1795,-0.1762,-0.1579,-0.147,-0.1474,-0.132,-0.1303,-0.1296,-0.1259,-0.1248,-0.1288,-0.1323,-0.1275,-0.0932,-0.093,-0.0928,-0.0927,0,0,-0.1733,-0.1691,-0.1699,-0.1602,-0.1605,-0.1508,-0.1479,-0.1427,-0.14,-0.1306,-0.1258,-0.1358,-0.1396,-0.1159,-0.1113,-0.0989,-0.1124,-0.0937,-0.1428,-0.145,-0.1484,-0.1596,-0.1564,0,0,0,0,0]},{"header":{"parameterUnit":"m.s-1","parameterCategory":2,"la1":30.2991,"la2":30.254,"lo1":-89.0895,"lo2":-89.0444,"dy":0.0017,"dx":0.0017,"nx":28,"ny":28,"refTime":"2024-10-21T09:00:00:Z","depth":"2","parameterNumber":3,"parameterNumberName":"V-component_of_CURRENTS"},"data":[0,0,0,0,0,0,0,0,0,0,0,0,0,0,0,0,0,0,0,0,0,0,0,0,0,0,0,0,0,0,0,0,0,0,0,0,0,0,0,0,0,0,0,0,0,0,0,0,0,0,0,0,0,0,0,0,0,0,-0.0163,-0.0162,0,-0.0083,-0.0082,-0.0081,-0.0006,-0.0005,-0.0005,-0.0004,0.0176,0.018,0.0184,0,0,0,0,0,0,0,0,0,0,0,0,0,-0.0189,-0.0189,-0.0163,-0.0162,-0.0161,-0.0083,-0.0082,-0.0081,-0.0007,-0.0005,-0.0004,-0.0003,0.0175,0.018,0.0185,0,0,0,0,0,0,0,0,0,0,0,0,0,-0.015,-0.0189,-0.0163,-0.0115,-0.011,-0.0083,-0.0082,-0.008,-0.0007,-0.0005,-0.0004,-0.0003,0.0174,0.0179,0.0185,0.0195,0,0,0.0203,0.0206,0,0,0,0,0,0,0,0,-0.0152,-0.0149,-0.0123,-0.0118,-0.0112,-0.0053,-0.0025,0.0017,-0.0007,-0.0046,-0.0004,-0.0002,0.0108,0.0119,0.013,0.0204,0.0211,0.0204,0.0208,0.021,0.0212,0,0,0,0,0,0,0,-0.0155,-0.0152,-0.0131,-0.0122,-0.0116,-0.0075,-0.0069,-0.0017,0.0025,-0.0042,-0.0037,-0.0029,0.0112,0.0124,0.0135,0.0214,0.0204,0.0209,0.0213,0.0215,0.0292,0.0291,0,0,0,0,0,0,-0.0171,-0.0155,-0.0133,-0.0129,-0.013,-0.0076,-0.0069,-0.0074,0.0022,0.0037,-0.003,-0.0025,0.0113,0.0128,0.0142,0.0177,0.021,0.0216,0.0219,0.0294,0.0292,0.029,0,0,0,0,0,0,-0.0172,-0.017,-0.0137,-0.0139,-0.0132,-0.0078,-0.0083,-0.0073,-0.0053,0.003,0.0048,-0.002,0.0115,0.0134,0.0182,0.0184,0.0218,0.0224,0.0296,0.0293,0.0291,0.0237,0,0,0,0,0,0,-0.0173,-0.0171,-0.0179,-0.0141,-0.0132,-0.0123,-0.0084,-0.0072,-0.005,-0.0044,0.0044,0.0062,0.0117,0.0173,0.0188,0.0193,0.0228,0.0298,0.0295,0.0292,0.024,0.0233,0.0226,0,0,0,0,0,-0.0174,-0.0194,-0.018,-0.0177,-0.0146,-0.0124,-0.0116,-0.0072,-0.0052,-0.0048,0.0005,0.006,0.0165,0.0177,0.0195,0.0202,0.0299,0.0296,0.0292,0.0244,0.0234,0.0227,0,0,0,0,0,0,-0.0213,-0.0187,-0.0171,-0.0183,-0.0156,-0.0111,-0.0107,-0.0079,-0.0036,-0.0029,0.0051,0.0072,0.0114,0.0152,0.0163,0.0208,0.0237,0.0237,0.0193,0.0185,0.0178,0.0167,0.0233,0,0,0,0,0,-0.0227,-0.0235,-0.0198,-0.021,-0.0198,-0.0154,-0.0139,-0.0114,-0.0072,-0.0052,0.001,0.0064,0.011,0.0144,0.0189,0.0221,0.0266,0.0229,0.0222,0.0216,0.0215,0.0278,0.0278,0.0279,0.0279,0.0279,0,0,-0.0246,-0.0234,-0.0238,-0.0218,-0.0194,-0.0189,-0.0142,-0.013,-0.0121,-0.0039,-0.0005,0.0047,0.011,0.0145,0.0166,0.0183,0.0236,0.0212,0.0207,0.0209,0.0275,0.0276,0.0276,0.0277,0.0277,0.0278,0,0,-0.0292,-0.0277,-0.0296,-0.0277,-0.025,-0.0222,-0.0221,-0.0176,-0.0148,-0.012,-0.0059,-0.0007,0.0057,0.0113,0.0145,0.0123,0.0195,0.0127,0.0095,0.0157,0.0158,0.016,0.0208,0.0214,0.0127,0.0127,0.0127,0,-0.0314,-0.0334,-0.0297,-0.0307,-0.0295,-0.0241,-0.0251,-0.0221,-0.0166,-0.0139,-0.0121,-0.0017,0.0043,0.0101,0.0089,0.0114,0.0149,0.0129,0.0151,0.0154,0.0157,0.0205,0.0213,0.0124,0.0124,0.0124,0.0125,0,-0.037,-0.0379,-0.0389,-0.0382,-0.0364,-0.0367,-0.0318,-0.0294,-0.0257,-0.0215,-0.0154,-0.0077,-0.0009,0.001,0.0046,0.0092,0.011,0.0136,0.018,0.0154,0.0206,0.0215,0.0119,0.012,0.0121,0.0122,0,0,-0.0432,-0.0429,-0.0433,-0.0435,-0.0402,-0.0395,-0.0378,-0.0336,-0.0313,-0.0257,-0.0216,-0.014,-0.0085,-0.0047,0.0016,0.0066,0.0117,0.0098,0.0103,0.0158,0.0242,0.0273,0.0287,0.0149,0.015,0.0151,0.0268,0,-0.0484,-0.0527,-0.0502,-0.0524,-0.0532,-0.0473,-0.0459,-0.0412,-0.0355,-0.0302,-0.0213,-0.0157,-0.011,-0.0074,-0.0015,0.0089,0.014,0.0083,0.0248,0.0253,0.0295,0.0298,0.0264,0.0366,0.0277,0.0279,0.028,0,-0.0544,-0.0559,-0.06,-0.0585,-0.0581,-0.0583,-0.0533,-0.0512,-0.042,-0.0371,-0.0291,-0.0217,-0.0123,-0.009,0.0077,0.0036,0.0127,0.0201,0.0208,0.0265,0.0302,0.0378,0.0387,0.0297,0.0295,0.0294,0.0293,0,-0.0605,-0.0624,-0.0659,-0.0657,-0.0633,-0.063,-0.0612,-0.0536,-0.0506,-0.0411,-0.0372,-0.0249,-0.0181,-0.0057,0.01,0.0089,0.028,0.0293,0.0406,0.0409,0.0427,0.0429,0.0403,0.0403,0.0403,0.0402,0.0402,0,-0.0667,-0.0693,-0.0695,-0.071,-0.0736,-0.0693,-0.0689,-0.0644,-0.0569,-0.0526,-0.0413,-0.0344,-0.0172,-0.0037,0.0093,0.0285,0.0285,0.0405,0.0447,0.0404,0.0402,0.0379,0.0374,0.0407,0.0406,0.0405,0.0404,0,-0.0732,-0.0737,-0.0773,-0.0768,-0.0768,-0.0788,-0.0756,-0.0741,-0.0663,-0.06,-0.0575,-0.041,-0.023,-0.0049,0.0169,0.0283,0.0456,0.0522,0.0453,0.0484,0.054,0.0531,0.0655,0.0658,0.066,0.0661,0.0662,0,-0.0776,-0.0799,-0.0826,-0.0848,-0.0852,-0.0865,-0.0865,-0.0801,-0.0768,-0.063,-0.0598,-0.0421,-0.0267,0.0063,0.0283,0.0524,0.0521,0.0625,0.0602,0.0541,0.0569,0.0557,0.0546,0.06,0.0601,0.0602,0.0602,0,-0.0836,-0.0846,-0.0874,-0.0921,-0.0942,-0.0956,-0.0943,-0.0931,-0.0834,-0.075,-0.0603,-0.0474,-0.0163,0.0103,0.0402,0.0535,0.0582,0.0645,0.0624,0.0537,0.0498,0.0522,0.0512,0.0607,0.0606,0.0606,0.0606,0.0606,-0.0875,-0.0914,-0.0944,-0.0986,-0.1012,-0.1022,-0.1016,-0.0964,-0.0894,-0.0732,-0.0615,-0.0372,-0.0152,0.0295,0.0484,0.0663,0.0664,0.0708,0.0703,0.0698,0.0665,0.0632,0.0759,0.076,0.076,0.076,0.076,0,-0.0913,-0.0948,-0.0997,-0.104,-0.1069,-0.1066,-0.1042,-0.099,-0.0886,-0.0718,-0.054,-0.0244,0.0052,0.0288,0.0575,0.0736,0.0707,0.0754,0.068,0.0675,0.0671,0.0633,0.0721,0.0721,0.0722,0.0722,0,0,-0.093,-0.0986,-0.1009,-0.1067,-0.1093,-0.109,-0.1067,-0.0959,-0.0823,-0.0631,-0.0436,-0.02,0.0079,0.0273,0.0458,0.06,0.0591,0.0608,0.0624,0.0507,0.0501,0.063,0.0567,0,0,0,0,0]}],[{"header":{"parameterUnit":"m.s-1","parameterCategory":2,"la1":30.2991,"la2":30.254,"lo1":-89.0895,"lo2":-89.0444,"dy":0.0017,"dx":0.0017,"nx":28,"ny":28,"refTime":"2024-10-21T09:00:00:Z","depth":"4","parameterNumber":2,"parameterNumberName":"U-component_of_CURRENTS"},"data":[0,0,0,0,0,0,0,0,0,0,0,0,0,0,0,0,0,0,0,0,0,0,0,0,0,0,0,0,0,0,0,0,0,0,0,0,0,0,0,0,0,0,0,0,0,0,0,0,0,0,0,0,0,0,0,0,0,0,-0.1365,-0.1366,0,-0.1446,-0.1447,-0.1447,-0.1499,-0.15,-0.15,-0.1501,-0.1543,-0.1544,-0.1545,0,0,0,0,0,0,0,0,0,0,0,0,0,-0.1246,-0.1248,-0.1365,-0.1366,-0.1367,-0.1446,-0.1447,-0.1448,-0.1499,-0.15,-0.1501,-0.1501,-0.1543,-0.1544,-0.1545,0,0,0,0,0,0,0,0,0,0,0,0,0,-0.1307,-0.1248,-0.1364,-0.1404,-0.1408,-0.1446,-0.1447,-0.1448,-0.1499,-0.15,-0.1501,-0.1501,-0.1543,-0.1544,-0.1545,-0.1536,0,0,-0.1548,-0.1548,0,0,0,0,0,0,0,0,-0.1304,-0.1311,-0.1397,-0.1401,-0.1406,-0.1465,-0.1421,-0.1476,-0.1499,-0.1463,-0.1501,-0.1502,-0.1514,-0.1518,-0.1529,-0.1538,-0.1539,-0.1548,-0.1548,-0.1549,-0.1549,0,0,0,0,0,0,0,-0.13,-0.1308,-0.1395,-0.1398,-0.1404,-0.1415,-0.1424,-0.1431,-0.1481,-0.1466,-0.147,-0.1482,-0.1516,-0.1528,-0.153,-0.154,-0.1548,-0.1549,-0.1549,-0.155,-0.1687,-0.169,0,0,0,0,0,0,-0.1294,-0.1304,-0.1392,-0.1397,-0.1358,-0.1416,-0.1427,-0.1444,-0.1482,-0.1489,-0.1482,-0.1485,-0.1526,-0.1529,-0.1532,-0.1628,-0.1549,-0.155,-0.155,-0.1684,-0.1688,-0.1691,0,0,0,0,0,0,-0.1291,-0.1301,-0.1389,-0.1354,-0.1366,-0.1418,-0.1436,-0.1445,-0.1485,-0.1495,-0.1501,-0.1516,-0.1527,-0.153,-0.1583,-0.1626,-0.155,-0.1551,-0.168,-0.1685,-0.1689,-0.1752,0,0,0,0,0,0,-0.1287,-0.1299,-0.1323,-0.1354,-0.1368,-0.1434,-0.1436,-0.1446,-0.1491,-0.1496,-0.1526,-0.1529,-0.1527,-0.1582,-0.1584,-0.1626,-0.1552,-0.1677,-0.1683,-0.1688,-0.1746,-0.1758,-0.1769,0,0,0,0,0,-0.1283,-0.1315,-0.1324,-0.1335,-0.1395,-0.1435,-0.1444,-0.1481,-0.1492,-0.1518,-0.1551,-0.153,-0.162,-0.1585,-0.1587,-0.163,-0.1674,-0.1681,-0.1687,-0.1741,-0.1756,-0.1768,0,0,0,0,0,0,-0.1276,-0.1324,-0.1335,-0.138,-0.1413,-0.1446,-0.1479,-0.1496,-0.1541,-0.1554,-0.1558,-0.1565,-0.1625,-0.1626,-0.1587,-0.1692,-0.1647,-0.1655,-0.1688,-0.1702,-0.1713,-0.1703,-0.1553,0,0,0,0,0,-0.1284,-0.1323,-0.1359,-0.1396,-0.1416,-0.1449,-0.1475,-0.1498,-0.1535,-0.1557,-0.1586,-0.1621,-0.165,-0.1676,-0.1698,-0.1749,-0.1728,-0.1785,-0.1796,-0.1806,-0.1804,-0.1826,-0.1838,-0.1714,-0.1714,-0.1713,0,0,-0.1289,-0.1323,-0.1344,-0.1398,-0.1427,-0.1474,-0.1468,-0.1517,-0.1563,-0.1552,-0.1637,-0.1653,-0.1672,-0.1735,-0.1763,-0.1745,-0.183,-0.1814,-0.1822,-0.1815,-0.1834,-0.1846,-0.1856,-0.1718,-0.1717,-0.1717,0,0,-0.1314,-0.1351,-0.139,-0.1429,-0.1482,-0.1507,-0.1526,-0.1579,-0.1613,-0.1683,-0.1691,-0.1739,-0.1796,-0.182,-0.1835,-0.1923,-0.1881,-0.1941,-0.1995,-0.2017,-0.2026,-0.2034,-0.2009,-0.2014,-0.1955,-0.1956,-0.1956,0,-0.1318,-0.1378,-0.1406,-0.1458,-0.15,-0.1527,-0.1578,-0.1616,-0.1685,-0.1718,-0.1725,-0.1824,-0.1836,-0.1902,-0.1939,-0.1945,-0.1935,-0.1935,-0.2028,-0.2035,-0.2042,-0.2014,-0.2019,-0.1959,-0.1959,-0.1959,-0.1958,0,-0.1367,-0.143,-0.146,-0.1536,-0.1579,-0.1632,-0.1682,-0.1737,-0.1781,-0.1817,-0.19,-0.1927,-0.1984,-0.2004,-0.1996,-0.2064,-0.2031,-0.2027,-0.1982,-0.2058,-0.2024,-0.2028,-0.1965,-0.1964,-0.1962,-0.1962,0,0,-0.1333,-0.1469,-0.1483,-0.1538,-0.163,-0.1668,-0.1749,-0.1822,-0.1877,-0.1947,-0.2017,-0.2079,-0.2091,-0.2109,-0.2113,-0.2136,-0.2168,-0.211,-0.2109,-0.2062,-0.2186,-0.2031,-0.2019,-0.2182,-0.2184,-0.2185,-0.2136,0,-0.1363,-0.1484,-0.1538,-0.1647,-0.1711,-0.1769,-0.1842,-0.1911,-0.1968,-0.2043,-0.2078,-0.2141,-0.2132,-0.216,-0.2188,-0.2169,-0.2185,-0.218,-0.2139,-0.2136,-0.1971,-0.2021,-0.219,-0.2139,-0.2139,-0.214,-0.214,0,-0.1387,-0.1471,-0.1591,-0.172,-0.175,-0.1819,-0.1931,-0.1996,-0.2088,-0.213,-0.2196,-0.2216,-0.2264,-0.2245,-0.2259,-0.2257,-0.2232,-0.2211,-0.2209,-0.2042,-0.1988,-0.2054,-0.2146,-0.2146,-0.2145,-0.2145,-0.2145,0,-0.1355,-0.1502,-0.1606,-0.1655,-0.1801,-0.1862,-0.1932,-0.2031,-0.2079,-0.2181,-0.2215,-0.2284,-0.2302,-0.2309,-0.2267,-0.2273,-0.2253,-0.2255,-0.2089,-0.2076,-0.22,-0.2192,-0.2268,-0.2268,-0.2268,-0.2268,-0.2268,0,-0.1367,-0.1448,-0.161,-0.1669,-0.1773,-0.187,-0.1967,-0.2041,-0.2134,-0.217,-0.2255,-0.2266,-0.2321,-0.231,-0.2283,-0.2176,-0.2268,-0.209,-0.206,-0.2227,-0.2223,-0.22,-0.2193,-0.2266,-0.2266,-0.2267,-0.2267,0,-0.1325,-0.1437,-0.1555,-0.172,-0.1768,-0.1842,-0.197,-0.2018,-0.2122,-0.2166,-0.2193,-0.2258,-0.2229,-0.2245,-0.2228,-0.216,-0.2099,-0.2041,-0.2187,-0.2167,-0.1903,-0.19,-0.1853,-0.1848,-0.1843,-0.1839,-0.1835,0,-0.1314,-0.1383,-0.1567,-0.1617,-0.1698,-0.1812,-0.1865,-0.1995,-0.2024,-0.2121,-0.2111,-0.2136,-0.2153,-0.1994,-0.204,-0.1976,-0.1957,-0.1915,-0.194,-0.1888,-0.1864,-0.1869,-0.1873,-0.1828,-0.1826,-0.1825,-0.1824,0,-0.1281,-0.1365,-0.1458,-0.156,-0.1637,-0.1709,-0.1795,-0.1806,-0.1915,-0.2025,-0.1966,-0.1941,-0.19,-0.1874,-0.1832,-0.1794,-0.1943,-0.1865,-0.1875,-0.1898,-0.1856,-0.1839,-0.1848,-0.1807,-0.1809,-0.1811,-0.1812,0,-0.1239,-0.1286,-0.14,-0.1469,-0.1552,-0.1566,-0.1639,-0.1653,-0.1699,-0.1806,-0.1771,-0.1798,-0.186,-0.1775,-0.1736,-0.1686,-0.1669,-0.1626,-0.1649,-0.1668,-0.1632,-0.1554,-0.1379,0,0,0,0,0,-0.1184,-0.1219,-0.1284,-0.1349,-0.1418,-0.1455,-0.1557,-0.1624,-0.173,-0.1636,-0.1701,-0.1651,-0.159,-0.161,-0.1517,-0.1661,-0.1685,-0.1549,-0.165,-0.1713,-0.1733,-0.1709,0,0,0,0,0,0,-0.1147,-0.1221,-0.1247,-0.1216,-0.122,-0.1273,-0.1329,-0.1408,-0.1371,-0.1483,-0.1454,-0.154,-0.1504,-0.1599,-0.1474,-0.1481,-0.151,-0.1581,-0.1576,-0.1702,-0.172,-0.1736,-0.1718,0,0,0,0,0]},{"header":{"parameterUnit":"m.s-1","parameterCategory":2,"la1":30.2991,"la2":30.254,"lo1":-89.0895,"lo2":-89.0444,"dy":0.0017,"dx":0.0017,"nx":28,"ny":28,"refTime":"2024-10-21T09:00:00:Z","depth":"4","parameterNumber":3,"parameterNumberName":"V-component_of_CURRENTS"},"data":[0,0,0,0,0,0,0,0,0,0,0,0,0,0,0,0,0,0,0,0,0,0,0,0,0,0,0,0,0,0,0,0,0,0,0,0,0,0,0,0,0,0,0,0,0,0,0,0,0,0,0,0,0,0,0,0,0,0,-0.0193,-0.0192,0,-0.0155,-0.0154,-0.0154,-0.0128,-0.0128,-0.0127,-0.0127,-0.0053,-0.0052,-0.005,0,0,0,0,0,0,0,0,0,0,0,0,0,-0.0203,-0.0204,-0.0193,-0.0192,-0.0191,-0.0155,-0.0154,-0.0154,-0.0128,-0.0128,-0.0127,-0.0127,-0.0054,-0.0052,-0.005,0,0,0,0,0,0,0,0,0,0,0,0,0,-0.0188,-0.0204,-0.0193,-0.0172,-0.017,-0.0155,-0.0154,-0.0154,-0.0129,-0.0128,-0.0127,-0.0127,-0.0055,-0.0052,-0.005,-0.0049,0,0,-0.0043,-0.0042,0,0,0,0,0,0,0,0,-0.0189,-0.0188,-0.0176,-0.0173,-0.0171,-0.0143,-0.0131,-0.0116,-0.0129,-0.0147,-0.0127,-0.0126,-0.0079,-0.0074,-0.0073,-0.0046,-0.0042,-0.0043,-0.0041,-0.004,-0.004,0,0,0,0,0,0,0,-0.019,-0.0189,-0.0181,-0.0175,-0.0172,-0.015,-0.0148,-0.0128,-0.0119,-0.0145,-0.0143,-0.0134,-0.0077,-0.0076,-0.0071,-0.0041,-0.0043,-0.0041,-0.0039,-0.0038,0.0019,0.0019,0,0,0,0,0,0,-0.0192,-0.0191,-0.0182,-0.0179,-0.0175,-0.0151,-0.0148,-0.0155,-0.012,-0.0113,-0.0135,-0.0133,-0.008,-0.0074,-0.0068,-0.0047,-0.004,-0.0038,-0.0037,0.0019,0.0019,0.0019,0,0,0,0,0,0,-0.0193,-0.0193,-0.0183,-0.0181,-0.0178,-0.0151,-0.0159,-0.0154,-0.015,-0.0111,-0.0105,-0.0134,-0.0079,-0.0072,-0.0043,-0.0044,-0.0037,-0.0035,0.0018,0.0019,0.0019,-0.0015,0,0,0,0,0,0,-0.0194,-0.0193,-0.0198,-0.0181,-0.0178,-0.0178,-0.0159,-0.0154,-0.0145,-0.0142,-0.0109,-0.0101,-0.0078,-0.0047,-0.0041,-0.0041,-0.0033,0.0018,0.0018,0.0019,-0.0014,-0.0016,-0.0018,0,0,0,0,0,-0.0195,-0.0206,-0.0199,-0.0197,-0.0186,-0.0178,-0.0175,-0.0155,-0.0145,-0.0148,-0.0117,-0.0102,-0.0041,-0.0045,-0.0038,-0.0038,0.0018,0.0018,0.0019,-0.0014,-0.0016,-0.0018,0,0,0,0,0,0,-0.0211,-0.0204,-0.0196,-0.0204,-0.0192,-0.0173,-0.0172,-0.0159,-0.0139,-0.0137,-0.0099,-0.009,-0.0069,-0.0047,-0.0052,-0.002,-0.001,-0.0008,-0.0037,-0.0039,-0.004,-0.0044,-0.0031,0,0,0,0,0,-0.0217,-0.0227,-0.0211,-0.0217,-0.0213,-0.0194,-0.0187,-0.0178,-0.0157,-0.0148,-0.0119,-0.0089,-0.0065,-0.0046,-0.0025,-0.0005,0.0031,0.0,-0.0002,-0.0003,-0.0001,0.0063,0.0068,0.002,0.002,0.002,0,0,-0.0226,-0.0221,-0.0227,-0.0221,-0.0212,-0.0213,-0.019,-0.0188,-0.0184,-0.0143,-0.0126,-0.0098,-0.0062,-0.0041,-0.0029,-0.002,0.0027,-0.0003,-0.0005,-0.0001,0.0064,0.0069,0.0073,0.002,0.002,0.002,0,0,-0.0247,-0.0245,-0.0259,-0.0253,-0.0241,-0.023,-0.0231,-0.0213,-0.02,-0.0183,-0.015,-0.0114,-0.0084,-0.0048,-0.0029,-0.0026,0.0009,-0.0028,-0.0032,0.003,0.0035,0.0039,0.0079,0.0088,-0.0021,-0.0022,-0.0022,0,-0.0256,-0.0273,-0.026,-0.0268,-0.0264,-0.0241,-0.0252,-0.0237,-0.0209,-0.0191,-0.0183,-0.0114,-0.0084,-0.0041,-0.0042,-0.0029,0.0002,-0.0028,0.0028,0.0034,0.0039,0.0079,0.0089,-0.0023,-0.0023,-0.0023,-0.0023,0,-0.0285,-0.0297,-0.0305,-0.0309,-0.0303,-0.0312,-0.0288,-0.0277,-0.0257,-0.0231,-0.0188,-0.0138,-0.0092,-0.008,-0.0062,-0.0012,-0.0005,0.0013,0.0033,0.0042,0.0083,0.0094,-0.0025,-0.0025,-0.0024,-0.0024,0,0,-0.0312,-0.0326,-0.0329,-0.0338,-0.0329,-0.033,-0.032,-0.03,-0.0284,-0.0245,-0.0212,-0.016,-0.0123,-0.0098,-0.006,-0.0005,0.0055,0.0014,0.0018,0.0052,0.0177,0.0148,0.0157,0.0081,0.0083,0.0085,0.0187,0,-0.0341,-0.0375,-0.0366,-0.0391,-0.0406,-0.0378,-0.037,-0.0344,-0.0307,-0.0268,-0.0201,-0.0163,-0.0132,-0.0109,-0.0047,0.0026,0.0083,0.0024,0.0166,0.017,0.0142,0.0169,0.0091,0.0195,0.0198,0.02,0.0201,0,-0.0371,-0.0392,-0.043,-0.0436,-0.0439,-0.0446,-0.0422,-0.041,-0.0344,-0.031,-0.0244,-0.0194,-0.0112,-0.0089,0.0059,0.0018,0.0093,0.0154,0.016,0.0154,0.0161,0.0189,0.0221,0.0219,0.0218,0.0217,0.0215,0,-0.0406,-0.0431,-0.0468,-0.0472,-0.0476,-0.048,-0.0476,-0.0426,-0.0409,-0.0335,-0.0304,-0.02,-0.0148,-0.0034,0.0086,0.0076,0.0247,0.0254,0.0303,0.0302,0.0312,0.0306,0.0368,0.0368,0.0367,0.0367,0.0367,0,-0.0439,-0.0465,-0.0492,-0.0513,-0.0546,-0.0525,-0.0532,-0.0504,-0.0451,-0.042,-0.0331,-0.0276,-0.0131,-0.0019,0.0089,0.0226,0.0258,0.0309,0.0333,0.0292,0.0283,0.0319,0.0312,0.0371,0.037,0.0369,0.0369,0,-0.0471,-0.0489,-0.0534,-0.0559,-0.057,-0.0594,-0.0591,-0.0581,-0.0525,-0.0478,-0.0458,-0.0327,-0.0184,-0.0037,0.015,0.0223,0.0359,0.0402,0.0338,0.0355,0.0369,0.0359,0.0465,0.0465,0.0465,0.0465,0.0465,0,-0.0489,-0.0522,-0.0582,-0.0612,-0.063,-0.0657,-0.0669,-0.063,-0.0605,-0.0501,-0.0473,-0.0338,-0.0239,0.0011,0.0153,0.0357,0.0382,0.0442,0.0415,0.037,0.0383,0.0373,0.0363,0.0465,0.0465,0.0465,0.0465,0,-0.0527,-0.0558,-0.0598,-0.0666,-0.07,-0.0723,-0.0728,-0.0715,-0.0647,-0.0603,-0.0467,-0.0333,-0.0173,0.0008,0.0162,0.0309,0.0395,0.0442,0.0443,0.0418,0.0371,0.0382,0.0372,0.0465,0.0465,0.0465,0.0465,0,-0.0554,-0.0598,-0.0658,-0.0706,-0.0753,-0.0764,-0.0765,-0.0713,-0.0678,-0.0552,-0.0512,-0.0325,-0.0217,-0.0015,0.0132,0.0264,0.0291,0.0322,0.033,0.0332,0.0253,0.0172,0.0234,0,0,0,0,0,-0.0577,-0.0628,-0.0685,-0.0737,-0.0779,-0.0796,-0.0787,-0.0766,-0.0704,-0.0613,-0.0554,-0.0397,-0.0165,-0.006,0.0068,0.011,0.0293,0.026,0.0327,0.0464,0.0464,0.0392,0,0,0,0,0,0,-0.0592,-0.0664,-0.0692,-0.0744,-0.0777,-0.0809,-0.0802,-0.076,-0.0691,-0.0613,-0.0484,-0.0393,-0.0168,-0.0243,0.0061,0.0102,0.0156,0.0376,0.0378,0.0464,0.0464,0.0464,0.039,0,0,0,0,0]}]]